period_start,C,m1,H,J0,J1,J2,J3,J4,J5,JA,JB,JC,JD,JJ,JK,JN,#
2014-10-06 00:02:27,0.01,0.99,0.00,21.90,26.62,29.58,4.88,27.08,1017.95,2039.01,3082.99,3046.01,3280.94,350.19,349.55,29.75,0000 0000 0000 0000 000000
2014-10-06 00:07:28,0.01,0.99,0.00,21.88,26.62,29.58,4.84,27.02,1018.00,2039.02,3082.88,3046.00,3280.58,350.09,349.55,29.77,0000 0000 0000 0000 000000
2014-10-06 00:12:29,0.03,0.99,0.00,21.90,26.62,29.57,4.86,27.16,1017.97,2039.03,3082.38,3046.00,3280.19,350.43,349.88,29.80,0000 0000 0000 0000 000000
2014-10-06 00:17:30,0.01,0.99,0.00,21.90,26.62,29.58,4.81,27.18,1017.86,2039.05,3082.01,3045.99,3280.03,349.90,349.23,29.83,0000 0000 0000 0000 000000
2014-10-06 00:22:31,0.01,0.99,0.00,21.92,26.62,29.57,4.87,27.19,1017.64,2039.03,3082.00,3045.98,3280.00,349.87,349.19,29.86,0000 0000 0000 0000 000000
2014-10-06 00:27:32,-0.00,0.99,0.00,21.92,26.62,29.56,4.75,26.97,1017.64,2039.02,3081.98,3045.79,3279.99,349.65,348.92,29.89,0000 0000 0000 0000 000000
2014-10-06 00:32:34,0.03,0.99,0.00,21.91,26.62,29.55,4.81,27.07,1017.61,2039.03,3081.77,3045.45,3279.94,349.63,348.90,29.92,0000 0000 0000 0000 000000
2014-10-06 00:37:35,0.04,0.99,0.00,21.91,26.62,29.57,4.81,27.06,1017.60,2039.05,3081.22,3045.17,3279.69,349.71,348.81,29.95,0000 0000 0000 0000 000000
2014-10-06 00:42:36,0.02,0.99,0.00,21.91,26.62,29.54,4.83,27.10,1017.60,2039.04,3081.01,3045.02,3279.12,350.13,349.42,29.98,0000 0000 0000 0000 000000
2014-10-06 00:47:38,0.00,0.99,0.00,21.91,26.62,29.57,4.86,27.13,1017.59,2039.08,3081.01,3045.02,3279.12,350.09,349.69,30.01,0000 0000 0000 0000 000000
2014-10-06 00:52:39,0.01,0.99,0.00,21.92,26.62,29.57,4.88,27.13,1017.59,2039.11,3081.00,3045.00,3279.03,349.67,348.95,30.04,0000 0000 0000 0000 000000
2014-10-06 00:57:40,0.00,0.99,0.00,21.92,26.62,29.56,4.83,27.13,1017.59,2039.13,3080.99,3045.00,3279.00,350.39,349.62,30.07,0000 0000 0000 0000 000000
2014-10-06 01:02:41,0.01,0.99,0.00,21.92,26.62,29.57,4.82,27.12,1017.59,2039.12,3080.67,3045.00,3278.99,349.84,349.32,30.10,0000 0000 0000 0000 000000
2014-10-06 01:07:42,0.01,0.99,0.00,21.91,26.62,29.58,4.81,27.15,1017.59,2039.05,3080.10,3044.95,3278.82,349.67,349.07,30.13,0000 0000 0000 0000 000000
2014-10-06 01:12:44,0.05,0.99,0.00,21.92,26.62,29.56,4.84,27.28,1017.60,2039.03,3080.00,3044.54,3278.22,350.33,349.44,30.16,0000 0000 0000 0000 000000
2014-10-06 01:17:45,0.02,0.99,0.00,21.91,26.62,29.56,4.77,27.17,1017.59,2039.05,3079.98,3044.19,3278.01,350.00,349.40,30.18,0000 0000 0000 0000 000000
2014-10-06 01:22:46,0.01,0.99,0.00,21.91,26.62,29.57,4.81,27.13,1017.59,2039.08,3079.96,3044.07,3278.01,350.07,349.38,30.21,0000 0000 0000 0000 000000
2014-10-06 01:27:47,0.02,0.99,0.00,21.92,26.62,29.58,4.85,27.22,1017.59,2039.09,3079.36,3044.02,3278.00,350.07,349.56,30.24,0000 0000 0000 0000 000000
2014-10-06 01:32:48,0.01,0.99,0.00,21.89,26.62,29.59,4.84,27.23,1017.59,2039.09,3079.04,3044.00,3277.98,349.78,348.74,30.27,0000 0000 0000 0000 000000
2014-10-06 01:37:49,-0.00,0.99,0.00,21.89,26.62,29.57,4.86,27.15,1017.59,2039.07,3079.00,3044.00,3277.87,350.58,349.79,30.30,0000 0000 0000 0000 000000
2014-10-06 01:42:50,0.02,1.00,0.00,21.89,26.62,29.58,4.86,27.16,1017.59,2039.05,3078.98,3043.98,3277.34,350.00,349.67,30.33,0000 0000 0000 0000 000000
2014-10-06 01:47:52,0.01,1.00,0.00,21.87,26.62,29.58,4.83,27.13,1017.59,2039.04,3078.83,3043.96,3277.07,350.54,349.87,30.36,0000 0000 0000 0000 000000
2014-10-06 01:52:53,0.02,1.00,0.00,21.88,26.62,29.58,4.81,27.23,1017.59,2039.07,3078.44,3043.89,3277.01,349.85,349.19,30.39,0000 0000 0000 0000 000000
2014-10-06 01:57:54,0.02,1.00,0.00,21.88,26.62,29.58,4.78,27.14,1017.59,2039.03,3078.10,3043.48,3277.00,350.42,349.72,30.42,0000 0000 0000 0000 000000
2014-10-06 02:02:55,0.02,1.00,0.00,21.87,26.62,29.60,4.88,27.23,1017.59,2039.09,3078.02,3043.27,3276.99,350.76,349.91,30.45,0000 0000 0000 0000 000000
2014-10-06 02:07:57,0.01,1.00,0.00,21.89,26.62,29.57,4.79,27.30,1017.59,2039.12,3078.00,3043.10,3276.98,349.54,349.07,30.48,0000 0000 0000 0000 000000
2014-10-06 02:12:58,0.01,1.00,0.00,21.86,26.62,29.58,4.87,27.43,1017.59,2039.09,3077.91,3043.01,3276.71,349.71,349.20,30.51,0000 0000 0000 0000 000000
2014-10-06 02:17:59,0.02,1.00,0.00,21.85,26.61,29.58,4.82,27.18,1017.59,2039.09,3077.69,3043.00,3276.21,350.03,349.41,30.54,0000 0000 0000 0000 000000
2014-10-06 02:23:01,0.02,1.00,0.00,21.86,26.61,29.57,4.78,27.17,1017.59,2039.17,3077.47,3043.00,3276.10,349.90,349.11,30.57,0000 0000 0000 0000 000000
2014-10-06 02:28:02,0.02,1.00,0.00,21.84,26.60,29.57,4.80,27.34,1017.59,2039.17,3077.13,3043.00,3276.02,350.10,349.34,30.59,0000 0000 0000 0000 000000
2014-10-06 02:33:04,0.02,1.00,0.00,21.84,26.60,29.58,4.79,27.27,1017.59,2039.29,3077.02,3042.99,3276.01,350.31,349.58,30.62,0000 0000 0000 0000 000000
2014-10-06 02:38:05,-0.01,1.00,0.00,21.84,26.60,29.57,4.80,27.16,1017.59,2039.21,3077.00,3042.96,3276.00,349.88,349.45,30.65,0000 0000 0000 0000 000000
2014-10-06 02:43:06,0.01,1.00,0.00,21.82,26.60,29.58,4.83,27.23,1017.60,2039.11,3076.90,3042.73,3275.92,350.13,349.68,30.68,0000 0000 0000 0000 000000
2014-10-06 02:48:07,0.05,1.00,0.00,21.82,26.60,29.56,4.92,27.23,1017.61,2039.21,3076.50,3042.45,3275.73,350.63,349.98,30.71,0000 0000 0000 0000 000000
2014-10-06 02:53:08,0.05,1.00,0.00,21.80,26.60,29.57,4.85,27.27,1017.61,2039.28,3076.16,3042.16,3275.38,350.01,349.52,30.74,0000 0000 0000 0000 000000
2014-10-06 02:58:09,0.02,1.00,0.00,21.80,26.59,29.57,4.83,27.12,1017.65,2039.34,3076.01,3042.04,3275.04,350.04,349.35,30.77,0000 0000 0000 0000 000000
2014-10-06 03:03:10,-0.02,1.00,0.00,21.78,26.58,29.57,4.87,27.20,1017.62,2039.30,3075.98,3042.00,3275.00,350.35,349.69,30.80,0000 0000 0000 0000 000000
2014-10-06 03:08:11,0.06,1.00,0.00,21.77,26.57,29.55,4.84,27.21,1017.62,2039.53,3075.98,3042.00,3275.00,350.56,350.08,30.83,0000 0000 0000 0000 000000
2014-10-06 03:13:13,0.00,1.01,0.00,21.79,26.57,29.56,4.78,27.38,1017.62,2039.51,3075.53,3042.00,3274.95,349.37,348.95,30.86,0000 0000 0000 0000 000000
2014-10-06 03:18:14,0.01,1.01,0.00,21.78,26.57,29.55,4.81,27.34,1017.60,2039.47,3075.05,3041.98,3274.85,349.85,349.31,30.89,0000 0000 0000 0000 000000
2014-10-06 03:23:15,0.02,1.01,0.00,21.78,26.57,29.54,4.81,27.34,1017.59,2039.57,3075.00,3041.97,3274.40,350.04,349.48,30.92,0000 0000 0000 0000 000000
2014-10-06 03:28:16,0.02,1.01,0.00,21.77,26.57,29.54,4.86,27.23,1017.59,2039.67,3074.99,3041.89,3274.10,350.03,349.42,30.95,0000 0000 0000 0000 000000
2014-10-06 03:33:18,0.04,1.01,0.00,21.77,26.57,29.53,4.80,27.27,1017.59,2039.68,3074.97,3041.58,3274.03,349.94,349.29,30.98,0000 0000 0000 0000 000000
2014-10-06 03:38:19,-0.00,1.01,0.00,21.75,26.57,29.52,4.83,27.28,1017.61,2039.63,3074.72,3041.19,3274.01,350.38,349.88,31.00,0000 0000 0000 0000 000000
2014-10-06 03:43:20,0.05,1.01,0.00,21.75,26.55,29.52,4.85,27.23,1017.60,2039.73,3074.25,3041.07,3274.00,350.60,350.05,31.03,0000 0000 0000 0000 000000
2014-10-06 03:48:21,0.01,1.01,0.00,21.76,26.55,29.53,4.84,27.32,1017.62,2039.81,3074.00,3041.01,3273.92,349.71,349.33,31.06,0000 0000 0000 0000 000000
2014-10-06 03:53:22,0.01,1.01,0.00,21.74,26.55,29.51,4.82,27.27,1017.63,2039.77,3074.00,3041.00,3273.71,349.92,349.63,31.09,0000 0000 0000 0000 000000
2014-10-06 03:58:23,0.03,1.01,0.00,21.74,26.55,29.50,4.79,27.19,1017.74,2039.89,3073.94,3041.00,3273.29,350.19,349.72,31.12,0000 0000 0000 0000 000000
2014-10-06 04:03:24,0.01,1.01,0.00,21.74,26.55,29.50,4.79,27.26,1017.66,2039.94,3073.89,3041.00,3273.09,349.64,349.19,31.15,0000 0000 0000 0000 000000
2014-10-06 04:08:26,0.01,1.01,0.00,21.75,26.54,29.50,4.88,27.31,1017.65,2039.98,3073.67,3041.00,3273.06,349.73,349.24,31.18,0000 0000 0000 0000 000000
2014-10-06 04:13:27,0.01,1.01,0.00,21.73,26.52,29.49,4.83,27.37,1017.87,2039.94,3073.18,3040.98,3273.02,349.76,349.43,31.21,0000 0000 0000 0000 000000
2014-10-06 04:18:28,-0.00,1.01,0.00,21.73,26.52,29.51,4.82,27.23,1017.98,2039.95,3073.00,3040.97,3272.99,350.29,350.05,31.24,0000 0000 0000 0000 000000
2014-10-06 04:23:29,0.00,1.01,0.00,21.73,26.52,29.50,4.84,27.32,1018.05,2039.97,3073.00,3040.94,3272.99,349.64,349.35,31.27,0000 0000 0000 0000 000000
2014-10-06 04:28:30,0.01,1.01,0.00,21.72,26.52,29.49,4.88,27.23,1018.07,2039.98,3072.99,3040.91,3272.98,350.42,350.27,31.30,0000 0000 0000 0000 000000
2014-10-06 04:33:31,0.00,1.01,0.00,21.70,26.52,29.49,4.81,27.12,1018.07,2039.97,3072.98,3040.88,3272.96,350.17,349.89,31.33,0000 0000 0000 0000 000000
2014-10-06 04:38:32,0.04,1.01,0.00,21.68,26.50,29.49,4.85,27.09,1018.07,2039.97,3072.90,3040.52,3272.80,350.52,350.35,31.36,0000 0000 0000 0000 000000
2014-10-06 04:43:33,0.00,1.01,0.00,21.68,26.50,29.48,4.86,27.19,1018.08,2039.97,3072.80,3040.37,3272.70,349.51,349.24,31.38,0000 0000 0000 0000 000000
2014-10-06 04:48:34,0.00,1.01,0.00,21.67,26.50,29.46,4.77,27.18,1018.08,2039.99,3072.59,3040.28,3272.60,349.52,349.28,31.41,0000 0000 0000 0000 000000
2014-10-06 04:53:35,0.04,1.01,0.00,21.69,26.50,29.46,4.77,27.18,1018.08,2039.99,3072.37,3040.16,3272.33,349.53,349.51,31.44,0000 0000 0000 0000 000000
2014-10-06 04:58:37,0.01,1.02,0.00,21.70,26.50,29.46,4.88,27.30,1018.08,2039.99,3072.08,3040.06,3272.07,350.17,350.05,31.47,0000 0000 0000 0000 000000
2014-10-06 05:03:38,0.00,1.02,0.00,21.68,26.48,29.44,4.81,27.15,1018.08,2039.99,3072.01,3040.02,3272.02,349.74,349.58,31.50,0000 0000 0000 0000 000000
2014-10-06 05:08:39,0.00,1.02,0.00,21.66,26.47,29.43,4.80,27.18,1018.12,2039.99,3072.00,3040.01,3272.00,350.15,350.04,31.53,0000 0000 0000 0000 000000
2014-10-06 05:13:40,0.00,1.02,0.00,21.65,26.47,29.43,4.83,27.42,1018.10,2039.99,3071.98,3040.00,3271.99,350.14,349.74,31.56,0000 0000 0000 0000 000000
2014-10-06 05:18:41,0.00,1.02,0.00,21.67,26.47,29.45,4.74,27.31,1018.10,2039.99,3071.95,3040.00,3271.98,349.10,349.16,31.59,0000 0000 0000 0000 000000
2014-10-06 05:23:42,0.00,1.02,0.00,21.71,26.47,29.42,4.84,27.24,1018.08,2039.99,3071.81,3040.00,3271.97,350.63,350.30,31.62,0000 0000 0000 0000 000000
2014-10-06 05:28:44,0.01,1.02,0.00,21.75,26.47,29.39,4.85,27.34,1018.10,2039.99,3071.56,3040.00,3271.94,349.91,349.46,31.65,0000 0000 0000 0000 000000
2014-10-06 05:33:45,0.01,1.02,0.00,21.78,26.46,29.37,4.88,27.34,1018.10,2039.99,3071.21,3039.99,3271.75,350.06,349.69,31.68,0000 0000 0000 0000 000000
2014-10-06 05:38:46,0.02,1.02,0.00,21.83,26.47,29.34,4.90,27.27,1018.09,2039.99,3071.02,3039.99,3271.25,350.31,349.77,31.71,0000 0000 0000 0000 000000
2014-10-06 05:43:47,0.01,1.02,0.00,21.86,26.47,29.33,4.83,27.19,1018.09,2039.99,3071.00,3039.89,3271.01,349.68,349.37,31.74,0000 0000 0000 0000 000000
2014-10-06 05:48:48,0.01,1.02,0.00,21.92,26.47,29.33,4.83,27.20,1018.37,2039.99,3070.99,3039.64,3271.00,350.22,349.81,31.76,0000 0000 0000 0000 000000
2014-10-06 05:53:49,0.02,1.02,0.00,21.95,26.48,29.32,4.84,27.23,1018.56,2039.99,3070.98,3039.22,3271.00,349.84,349.67,31.79,0000 0000 0000 0000 000000
2014-10-06 05:58:50,0.02,1.02,0.00,22.01,26.50,29.30,4.78,27.18,1018.57,2039.98,3070.68,3039.01,3270.90,349.03,348.72,31.82,0000 0000 0000 0000 000000
2014-10-06 06:03:51,0.03,1.02,0.00,22.06,26.50,29.25,4.84,27.21,1018.57,2039.98,3070.15,3039.00,3270.41,350.00,349.49,31.85,0000 0000 0000 0000 000000
2014-10-06 06:08:52,0.01,1.02,0.00,22.12,26.52,29.16,4.81,27.13,1018.57,2039.98,3070.02,3038.99,3270.04,350.36,349.40,31.88,0000 0000 0000 0000 000000
2014-10-06 06:13:53,0.02,1.02,0.00,22.21,26.54,29.14,4.76,27.27,1018.57,2039.96,3069.97,3038.71,3270.00,350.41,349.76,31.91,0000 0000 0000 0000 000000
2014-10-06 06:18:55,0.01,1.02,0.00,22.26,26.56,29.17,4.79,27.01,1018.57,2039.95,3069.98,3038.23,3269.99,350.11,349.45,31.94,0000 0000 0000 0000 000000
2014-10-06 06:23:56,0.02,1.02,0.00,22.34,26.57,29.18,4.79,27.18,1018.59,2039.85,3069.56,3038.01,3269.68,349.50,348.58,31.97,0000 0000 0000 0000 000000
2014-10-06 06:28:57,-0.01,1.02,0.00,22.40,26.60,29.20,4.76,27.16,1018.58,2039.74,3069.13,3038.00,3269.18,349.70,348.80,32.00,0000 0000 0000 0000 000000
2014-10-06 06:33:58,-0.06,1.02,0.00,22.47,26.62,29.23,4.78,27.07,1018.61,2039.34,3069.00,3037.94,3269.01,349.88,348.93,32.03,0000 0000 0000 0000 000000
2014-10-06 06:38:59,0.03,1.02,0.00,22.55,26.66,29.26,4.81,27.13,1018.63,2039.03,3068.72,3037.18,3268.71,349.85,348.74,32.06,0000 0000 0000 0000 000000
2014-10-06 06:44:01,0.03,1.02,0.00,22.62,26.69,29.30,4.77,27.12,1018.72,2039.00,3068.06,3037.00,3268.05,349.87,348.99,32.09,0000 0000 0000 0000 000000
2014-10-06 06:49:03,0.01,1.02,0.00,22.64,26.72,29.34,4.79,27.00,1018.91,2039.00,3067.99,3036.87,3267.99,350.04,349.00,32.12,0000 0000 0000 0000 000000
2014-10-06 06:54:04,0.07,1.02,0.00,22.69,26.76,29.39,4.78,27.02,1019.02,2039.00,3067.55,3036.20,3267.50,350.21,349.11,32.15,0000 0000 0000 0000 000000
2014-10-06 06:59:05,0.01,1.03,0.00,22.76,26.79,29.41,4.77,27.01,1019.00,2038.97,3067.01,3036.00,3267.01,349.96,348.98,32.17,0000 0000 0000 0000 000000
2014-10-06 07:04:07,-0.00,1.03,0.00,22.78,26.83,29.43,4.79,27.04,1018.99,2038.83,3066.93,3035.80,3266.82,350.09,348.81,32.20,0000 0000 0000 0000 000000
2014-10-06 07:09:08,-0.01,1.02,0.00,22.72,26.87,29.49,4.84,27.08,1019.06,2038.33,3066.17,3035.13,3266.10,349.67,348.47,32.23,0000 0000 0000 0000 000000
2014-10-06 07:14:09,-0.01,1.02,0.00,22.70,26.90,29.55,4.81,27.38,1019.06,2038.05,3065.90,3034.97,3265.90,350.10,348.77,32.26,0000 0000 0000 0000 000000
2014-10-06 07:19:10,0.07,1.03,0.00,22.78,26.94,29.57,4.73,26.99,1019.06,2038.00,3065.34,3034.50,3265.22,349.94,348.59,32.29,0000 0000 0000 0000 000000
2014-10-06 07:24:12,0.01,1.03,0.00,22.80,26.97,29.61,4.83,27.07,1019.06,2038.00,3065.00,3034.02,3264.99,350.41,349.05,32.32,0000 0000 0000 0000 000000
2014-10-06 07:29:13,0.03,1.03,0.00,22.82,27.01,29.65,4.84,27.02,1019.06,2037.99,3064.71,3033.96,3264.60,350.54,349.22,32.35,0000 0000 0000 0000 000000
2014-10-06 07:34:15,0.05,1.03,0.00,22.88,27.04,29.68,4.83,27.09,1019.07,2037.97,3064.05,3033.36,3264.03,349.93,348.59,32.38,0000 0000 0000 0000 000000
2014-10-06 07:39:16,-0.04,1.03,0.00,22.92,27.08,29.73,4.80,26.98,1019.07,2037.78,3063.99,3033.01,3263.96,349.99,348.64,32.41,0000 0000 0000 0000 000000
2014-10-06 07:44:17,-0.03,1.03,0.00,22.97,27.11,29.73,4.82,26.99,1019.10,2037.25,3063.45,3032.89,3263.22,350.45,349.06,32.44,0000 0000 0000 0000 000000
2014-10-06 07:49:19,0.03,1.03,0.00,22.99,27.15,29.79,4.79,27.04,1019.18,2037.03,3063.00,3032.12,3263.00,350.47,349.13,32.47,0000 0000 0000 0000 000000
2014-10-06 07:54:20,0.02,1.03,0.00,23.06,27.18,29.83,4.78,26.85,1019.33,2037.00,3062.72,3031.99,3262.83,349.83,348.26,32.50,0000 0000 0000 0000 000000
2014-10-06 07:59:22,0.07,1.03,0.00,23.11,27.22,29.86,4.81,26.98,1019.43,2036.99,3062.04,3031.51,3262.06,350.17,348.75,32.53,0000 0000 0000 0000 000000
2014-10-06 08:04:23,0.02,1.03,0.00,23.17,27.26,29.88,4.79,26.90,1019.51,2036.97,3061.81,3031.02,3261.85,350.27,348.61,32.56,0000 0000 0000 0000 000000
2014-10-06 08:09:24,0.03,1.03,0.00,23.20,27.30,29.92,4.78,26.92,1019.53,2036.91,3061.12,3030.94,3261.11,350.03,348.44,32.59,0000 0000 0000 0000 000000
2014-10-06 08:14:26,-0.06,1.03,0.00,23.25,27.34,29.94,4.77,27.18,1019.55,2036.42,3060.96,3030.19,3260.96,349.70,348.04,32.62,0000 0000 0000 0000 000000
2014-10-06 08:19:27,0.02,1.03,0.00,23.29,27.37,30.00,4.76,27.02,1019.54,2036.06,3060.32,3030.00,3260.32,349.59,347.95,32.64,0000 0000 0000 0000 000000
2014-10-06 08:24:28,0.01,1.03,0.00,23.16,27.41,30.05,4.79,26.99,1019.54,2036.01,3060.01,3029.89,3260.00,349.74,348.43,32.67,0000 0000 0000 0000 000000
2014-10-06 08:29:30,0.05,1.03,0.00,23.20,27.44,30.07,4.77,26.95,1019.55,2036.00,3059.96,3029.15,3259.90,350.08,348.54,32.70,0000 0000 0000 0000 000000
2014-10-06 08:34:31,0.04,1.03,0.00,23.24,27.48,30.13,4.86,26.94,1019.55,2036.00,3059.35,3029.00,3259.20,350.36,348.61,32.73,0000 0000 0000 0000 000000
2014-10-06 08:39:32,0.03,1.03,0.00,23.29,27.51,30.16,4.79,26.98,1019.55,2035.98,3059.00,3028.78,3259.00,350.18,348.59,32.76,0000 0000 0000 0000 000000
2014-10-06 08:44:33,0.05,1.04,0.00,23.30,27.54,30.18,4.83,27.01,1019.55,2035.92,3058.63,3028.09,3258.52,349.57,348.10,32.79,0000 0000 0000 0000 000000
2014-10-06 08:49:34,-0.09,1.04,0.00,23.39,27.57,30.21,4.81,26.95,1019.55,2035.45,3058.02,3027.99,3258.02,350.06,348.30,32.82,0000 0000 0000 0000 000000
2014-10-06 08:54:36,0.01,1.03,0.00,23.23,27.60,30.25,4.72,26.88,1019.55,2035.08,3057.94,3027.59,3257.87,349.61,348.00,32.85,0000 0000 0000 0000 000000
2014-10-06 08:59:37,0.05,1.04,0.00,23.19,27.62,30.25,4.77,26.95,1019.56,2035.02,3057.50,3027.03,3257.18,349.79,348.47,32.88,0000 0000 0000 0000 000000
2014-10-06 09:04:38,0.00,1.04,0.00,23.29,27.65,30.26,4.78,26.89,1019.58,2035.00,3057.03,3027.00,3257.01,350.26,348.25,32.91,0000 0000 0000 0000 000000
2014-10-06 09:09:39,0.02,1.04,0.00,23.29,27.67,30.29,4.84,26.93,1019.59,2035.00,3056.95,3026.77,3256.86,350.38,348.78,32.94,0000 0000 0000 0000 000000
2014-10-06 09:14:40,0.07,1.04,0.00,23.34,27.69,30.37,4.85,27.09,1019.58,2034.99,3056.23,3026.16,3256.13,350.48,348.77,32.97,0000 0000 0000 0000 000000
2014-10-06 09:19:41,0.00,1.04,0.00,23.38,27.71,30.46,4.84,26.93,1019.59,2034.96,3056.02,3026.00,3256.01,350.10,348.44,33.00,0000 0000 0000 0000 000000
2014-10-06 09:24:43,0.00,1.04,0.00,23.26,27.72,30.46,4.78,26.93,1019.63,2034.96,3055.98,3025.97,3255.93,350.01,348.33,33.02,0000 0000 0000 0000 000000
2014-10-06 09:29:44,0.05,1.04,0.00,23.16,27.74,30.47,4.81,26.98,1019.77,2034.90,3055.34,3025.78,3255.29,349.72,348.29,33.05,0000 0000 0000 0000 000000
2014-10-06 09:34:46,-0.01,1.04,0.00,23.27,27.75,30.55,4.78,26.91,1019.88,2034.73,3055.01,3025.19,3255.01,350.08,348.61,33.08,0000 0000 0000 0000 000000
2014-10-06 09:39:47,-0.04,1.04,0.00,23.40,27.76,30.58,4.77,26.89,1019.93,2034.40,3054.95,3025.00,3254.97,349.85,348.42,33.11,0000 0000 0000 0000 000000
2014-10-06 09:44:49,0.02,1.04,0.00,23.46,27.77,30.60,4.80,26.82,1019.97,2034.34,3054.61,3025.00,3254.74,350.77,348.83,33.14,0000 0000 0000 0000 000000
2014-10-06 09:49:49,-0.01,1.04,0.00,23.39,27.79,30.53,4.83,26.88,1019.92,2034.12,3054.06,3024.95,3254.08,350.13,348.42,33.17,0000 0000 0000 0000 000000
2014-10-06 09:54:51,0.01,1.04,0.00,23.18,27.80,30.65,4.84,26.82,1019.76,2034.03,3054.00,3024.63,3254.00,350.12,348.71,33.20,0000 0000 0000 0000 000000
2014-10-06 09:59:52,0.02,1.04,0.00,23.19,27.80,30.66,4.80,26.92,1019.73,2034.01,3053.97,3024.10,3253.99,349.84,348.48,33.23,0000 0000 0000 0000 000000
2014-10-06 10:04:53,0.00,1.04,0.00,23.34,27.82,30.67,4.83,26.94,1019.81,2034.02,3053.95,3024.02,3253.98,350.37,348.81,33.26,0000 0000 0000 0000 000000
2014-10-06 10:09:55,0.03,1.04,0.00,23.40,27.82,30.67,4.80,26.99,1019.87,2034.01,3053.55,3024.00,3253.73,349.97,348.45,33.29,0000 0000 0000 0000 000000
2014-10-06 10:14:56,0.03,1.04,0.00,23.23,27.82,30.71,4.79,27.06,1019.94,2034.01,3053.07,3024.00,3253.20,350.23,348.82,33.32,0000 0000 0000 0000 000000
2014-10-06 10:19:57,-0.00,1.04,0.00,23.20,27.83,30.69,4.82,26.87,1019.92,2034.01,3053.00,3023.99,3253.03,349.89,348.32,33.35,0000 0000 0000 0000 000000
2014-10-06 10:24:58,0.00,1.04,0.00,23.33,27.85,30.68,4.78,26.98,1019.83,2034.01,3052.99,3023.97,3253.00,349.33,347.58,33.38,0000 0000 0000 0000 000000
2014-10-06 10:29:59,0.02,1.04,0.00,23.34,27.85,30.70,4.86,26.92,1019.77,2034.00,3052.87,3023.68,3252.98,350.02,348.39,33.41,0000 0000 0000 0000 000000
2014-10-06 10:35:00,0.06,1.04,0.00,23.16,27.85,30.70,4.79,26.94,1019.64,2034.00,3052.18,3023.12,3252.63,350.12,348.66,33.43,0000 0000 0000 0000 000000
2014-10-06 10:40:02,0.01,1.05,0.00,23.19,27.85,30.68,4.81,27.10,1019.59,2034.00,3052.00,3023.01,3252.20,349.77,348.41,33.46,0000 0000 0000 0000 000000
2014-10-06 10:45:03,0.00,1.05,0.00,23.36,27.85,30.67,4.80,26.97,1019.57,2034.00,3052.01,3023.01,3252.08,350.07,348.47,33.49,0000 0000 0000 0000 000000
2014-10-06 10:50:04,0.00,1.05,0.00,23.44,27.85,30.71,4.79,27.09,1019.65,2034.00,3052.00,3023.00,3252.01,349.81,348.14,33.52,0000 0000 0000 0000 000000
2014-10-06 10:55:06,0.00,1.05,0.00,23.27,27.85,30.69,4.80,26.89,1019.71,2034.00,3051.96,3022.98,3252.00,349.87,348.13,33.55,0000 0000 0000 0000 000000
2014-10-06 11:00:07,0.02,1.05,0.00,23.18,27.85,30.70,4.79,27.02,1019.65,2034.00,3051.47,3022.95,3251.99,349.81,348.41,33.58,0000 0000 0000 0000 000000
2014-10-06 11:05:09,0.01,1.05,0.00,23.18,27.85,30.67,4.81,26.98,1019.58,2034.00,3051.19,3022.93,3251.98,349.53,348.07,33.61,0000 0000 0000 0000 000000
2014-10-06 11:10:10,0.00,1.05,0.00,23.18,27.85,30.66,4.76,26.89,1019.59,2034.00,3051.06,3022.91,3251.97,349.34,347.86,33.64,0000 0000 0000 0000 000000
2014-10-06 11:15:11,0.05,1.05,0.00,23.34,27.85,30.65,4.85,27.07,1019.63,2034.00,3051.01,3022.34,3251.51,350.03,348.43,33.67,0000 0000 0000 0000 000000
2014-10-06 11:20:13,0.01,1.05,0.00,23.46,27.84,30.64,4.82,26.93,1019.81,2034.00,3051.00,3022.15,3251.30,350.29,348.24,33.70,0000 0000 0000 0000 000000
2014-10-06 11:25:14,0.00,1.05,0.00,23.56,27.84,30.65,4.78,26.91,1019.93,2034.00,3050.98,3022.02,3251.06,349.76,348.11,33.73,0000 0000 0000 0000 000000
2014-10-06 11:30:15,0.01,1.05,0.00,23.44,27.84,30.66,4.77,27.02,1019.95,2034.00,3050.62,3022.00,3251.00,349.48,347.88,33.76,0000 0000 0000 0000 000000
2014-10-06 11:35:16,0.00,1.05,0.00,23.21,27.85,30.67,4.76,26.98,1019.97,2034.00,3050.28,3021.99,3250.99,349.51,348.04,33.79,0000 0000 0000 0000 000000
2014-10-06 11:40:18,0.00,1.05,0.00,23.20,27.84,30.67,4.79,26.88,1020.01,2034.00,3050.03,3021.97,3250.97,350.52,349.12,33.82,0000 0000 0000 0000 000000
2014-10-06 11:45:19,0.00,1.05,0.00,23.19,27.84,30.67,4.74,26.93,1020.00,2034.00,3050.00,3021.98,3250.90,349.55,348.25,33.85,0000 0000 0000 0000 000000
2014-10-06 11:50:20,0.02,1.05,0.00,23.16,27.82,30.65,4.76,26.93,1020.00,2034.00,3050.00,3021.92,3250.39,349.59,348.25,33.87,0000 0000 0000 0000 000000
2014-10-06 11:55:21,0.01,1.05,0.00,23.29,27.82,30.65,4.81,26.92,1020.01,2034.00,3049.98,3021.89,3250.10,350.24,348.79,33.90,0000 0000 0000 0000 000000
2014-10-06 12:00:22,0.02,1.05,0.00,23.29,27.82,30.65,4.81,26.98,1019.96,2034.00,3049.72,3021.67,3250.04,350.50,348.94,33.93,0000 0000 0000 0000 000000
2014-10-06 12:05:24,0.04,1.05,0.00,23.20,27.82,30.64,4.78,26.88,1019.97,2034.00,3049.07,3021.22,3250.00,350.12,348.72,33.96,0000 0000 0000 0000 000000
2014-10-06 12:10:25,0.01,1.05,0.00,23.22,27.81,30.62,4.83,27.08,1020.01,2034.00,3049.00,3021.03,3249.97,350.39,348.77,33.99,0000 0000 0000 0000 000000
2014-10-06 12:15:26,0.00,1.05,0.00,23.30,27.80,30.61,4.81,27.02,1020.02,2034.00,3048.94,3021.00,3249.82,350.10,348.64,34.02,0000 0000 0000 0000 000000
2014-10-06 12:20:27,0.03,1.05,0.00,23.29,27.80,30.60,4.80,27.04,1020.01,2034.00,3048.67,3021.00,3249.45,349.71,348.12,34.05,0000 0000 0000 0000 000000
2014-10-06 12:25:29,0.02,1.05,0.00,23.20,27.80,30.59,4.83,26.79,1020.03,2034.00,3048.05,3020.98,3249.02,350.25,348.86,34.08,0000 0000 0000 0000 000000
2014-10-06 12:30:30,0.00,1.05,0.00,23.23,27.80,30.59,4.83,26.93,1020.00,2034.01,3048.03,3020.97,3249.01,350.54,349.02,34.11,0000 0000 0000 0000 000000
2014-10-06 12:35:31,-0.00,1.05,0.00,23.34,27.78,30.58,4.78,27.01,1019.96,2034.01,3048.00,3020.97,3249.00,349.57,347.87,34.14,0000 0000 0000 0000 000000
2014-10-06 12:40:33,0.01,1.05,0.00,23.26,27.77,30.55,4.82,26.98,1019.94,2034.01,3048.00,3020.85,3249.00,349.81,348.08,34.17,0000 0000 0000 0000 000000
2014-10-06 12:45:34,0.01,1.06,0.00,23.22,27.77,30.53,4.83,26.89,1019.95,2034.02,3047.99,3020.61,3248.99,350.68,349.17,34.20,0000 0000 0000 0000 000000
2014-10-06 12:50:35,0.02,1.06,0.00,23.28,27.76,30.54,4.78,26.96,1019.93,2034.01,3047.82,3020.19,3248.94,350.41,348.72,34.23,0000 0000 0000 0000 000000
2014-10-06 12:55:37,0.03,1.06,0.00,23.23,27.75,30.54,4.84,27.09,1019.94,2034.01,3047.31,3020.06,3248.74,350.10,348.58,34.26,0000 0000 0000 0000 000000
2014-10-06 13:00:37,0.02,1.06,0.00,23.19,27.75,30.53,4.80,26.93,1019.92,2034.01,3047.01,3020.01,3248.16,349.92,348.45,34.28,0000 0000 0000 0000 000000